Home   Weather   Citrus Heights   Past weeks

Flag for USA Past Weather in Citrus Heights, California, USA — Yesterday and Last 2 Weeks

Now
37 °F

Clear.


Feels Like: 33 °F
Forecast: 34 / 53 °F
Wind: 6 mph from Southeast

Location: Mather Field

Current Time: Feb 23, 2017 at 1:28:28 am

Latest Report: Feb 22, 2017 at 11:30 pm


Visibility: 10 mi

Pressure: 30.16 "Hg

Humidity: 93%

Dew Point: 36 °F

Location of Citrus HeightsLocation

Past Weather in Citrus Heights — Graph

°F

Citrus Heights Temperature Yesterday

Maximum temperature yesterday: 55 °F (at 12:50 pm)
Minimum temperature yesterday: 37 °F (at 6:45 am)
Average temperature yesterday: 46 °F

High & Low Weather Summary for the Past Weeks

 TemperatureHumidityPressure
High66 °F (Feb 14, 2:51 pm)100% (Feb 7, 11:30 pm)30.26 "Hg (Feb 7, 11:30 pm)
Low36 °F (Feb 12, 6:45 am)41% (Feb 22, 2:45 pm)29.21 "Hg (Feb 17, 4:45 pm)
Average54 °F86%29.98 "Hg
* Reported Feb 7 11:30 pm — Feb 22 11:30 pm, Citrus Heights, Weather by CustomWeather, © 2017

Note: Actual official high and low records may vary slightly from our data, if they occured in-between our weather recording intervals... More about our weather records

Advertising

Citrus Heights Weather History for the Previous 24 Hours

Scroll right to see more
 ConditionsComfort  
Time TempWeatherWind HumidityBarometerVisibility
11:30 pm
Wed, Feb 22
37 °FClear.6 mph93%30.16 "Hg10 mi
10:45 pm37 °FClear.5 mph93%30.17 "Hg10 mi
9:57 pm37 °FClear.5 mph93%30.17 "Hg10 mi
8:45 pm39 °FClear.No wind87%30.16 "Hg10 mi
7:45 pm45 °FClear.5 mph71%30.15 "Hg10 mi
6:45 pm46 °FClear.8 mph66%30.15 "Hg10 mi
5:45 pm48 °FPartly sunny.17 mph62%30.15 "Hg10 mi
4:55 pm50 °FPartly sunny.13 mph58%30.16 "Hg10 mi
3:45 pm55 °FScattered clouds.10 mph47%30.15 "Hg10 mi
2:45 pm55 °FScattered clouds.7 mph41%30.16 "Hg10 mi
1:45 pm55 °FPartly sunny.9 mph47%30.18 "Hg10 mi
12:50 pm55 °FBroken clouds.5 mph47%30.20 "Hg10 mi
11:50 am54 °FBroken clouds.No wind54%30.23 "Hg10 mi
10:45 am52 °FPartly sunny.5 mph62%30.25 "Hg10 mi
9:45 am48 °FSunny.5 mph76%30.25 "Hg10 mi
7:45 am43 °FSunny.5 mph100%30.23 "Hg10 mi
6:45 am37 °FClear.7 mph100%30.23 "Hg10 mi
5:45 am39 °FClear.7 mph100%30.23 "Hg10 mi
4:45 am41 °FClear.6 mph100%30.24 "Hg10 mi
3:45 am41 °FClear.6 mph100%30.23 "Hg10 mi
2:45 am41 °FClear.5 mph100%30.23 "Hg10 mi
Weather by CustomWeather, © 2017

See weather overviewHow to use our weather pages